Location: Dompnac
(44.5644°N, 4.1026°E)
Time: 10:30:19
(UTC+00:00)

Resurs 1-3 - Pass Details

Date: 19 September 2020
Orbit: 631 x 632 km, 97.9° (Epoch: 29 October)

Event Time Altitude Azimuth Distance (km) Brightness Sun altitude
Exits shadow 20:22:22 54° 262° (W) 772 4.2 -27.2°
Drops below altitude 10° 20:26:39 10° 338° (NNW) 2,023 6.9 -27.9°
Sets 20:28:54 0° 343° (NNW) 2,936 7.7 -28.2°
